Content
SEND FEEDBACK

Daily
Averages
Monthly
Summary
United States of America

BERKELEY, MISSOURI


Home > North America > United States > Missouri
Elevation: 564 feet     Latitude: 38 45N     Longitude: 090 22W

WEATHER
 
SELECT A DAY
Number of Records: 203,542;   Date Range: 1/1/95 - 8/30/14
 
SHARE

PRINT THIS DATA

[ ← Previous Day ]
WEATHER ALMANAC - APRIL 26, 2013
[ Next Day → ]
[ °C ]   °F
Weather ElementAverageHighLow
Temperature55 °F59 °F (11:51 am)51.1 °F (4:51 am)
Dewpoint41.3 °F45 °F (1:51 pm)35.1 °F (1:51 am)
Humidity60.3 %71 % (10:51 pm)50 % (1:51 am)
Barometer30.32 in30.38 in (9:51 am)30.27 in (7:51 pm)
Wind Speed9.8 mph17.3 mph (12:51 pm)
Wind Gust21.9 mph (11:51 am)
Weather ElementAverage
Visibility10 mi
Wind DirectionSSE (164.8 °)

Weather ElementTotal
Precipitation---
Heating Degree Days10 (Base 65)
Growing Degree Days5.1 (Base 50)
Averaged from 23 records on April 26, 2013
WEATHER CONDITIONS BREAKOUT
WIND DIRECTION BREAKOUT
WEATHER BY HOUR - APRIL 26, 2013
[ °C ]   °F
Local TimeTemperatureDewpointHumidityBarometerVisibilityWind DirectionWind SpeedGust SpeedPrecipitationEventsConditions
1:51 AM53.1 °F35.1 °F50 %30.30 in10.0 miSE (130°)10.4 mphOvercast
2:51 AM53.1 °F36.0 °F52 %30.28 in10.0 miSE (130°)6.9 mphOvercast
3:51 AM52.0 °F36.0 °F54 %30.28 in10.0 miSE (140°)11.5 mphMostly Cloudy
4:51 AM51.1 °F37.0 °F59 %30.30 in10.0 miSE (140°)9.2 mphMostly Cloudy
5:51 AM51.1 °F37.0 °F59 %30.30 in10.0 miSSE (150°)8.1 mphMostly Cloudy
6:51 AM52.0 °F37.0 °F57 %30.32 in10.0 miSSE (150°)8.1 mphOvercast
7:51 AM53.1 °F37.9 °F57 %30.35 in10.0 miSSE (160°)8.1 mphOvercast
8:51 AM55.0 °F39.0 °F55 %30.37 in10.0 miSouth (170°)8.1 mphOvercast
9:51 AM55.9 °F39.9 °F55 %30.38 in10.0 miSouth (190°)5.8 mphOvercast
10:51 AM57.9 °F43.0 °F58 %30.38 in10.0 miSouth (190°)9.2 mph0.00 inRainLight Rain
11:51 AM59.0 °F43.0 °F55 %30.35 in10.0 miSouth (180°)12.7 mph21.9 mph0.00 inOvercast
12:51 PM55.9 °F44.1 °F64 %30.36 in10.0 miSSW (210°)17.3 mph0.00 inOvercast
1:51 PM57.9 °F45.0 °F62 %30.34 in10.0 miSouth (180°)9.2 mph0.00 inRainLight Rain
2:51 PM57.9 °F44.1 °F60 %30.33 in10.0 miSouth (190°)8.1 mph0.00 inOvercast
3:51 PM57.9 °F44.1 °F60 %30.30 in10.0 miSSE (160°)11.5 mphOvercast
4:51 PM59.0 °F44.1 °F58 %30.29 in10.0 miSSE (150°)15.0 mphMostly Cloudy
5:51 PM57.0 °F44.1 °F62 %30.31 in10.0 miSouth (170°)11.5 mphOvercast
6:51 PM55.9 °F44.1 °F64 %30.30 in10.0 miSSE (160°)10.4 mphOvercast
7:51 PM55.0 °F44.1 °F67 %30.27 in10.0 miSSE (150°)11.5 mphOvercast
8:51 PM54.0 °F44.1 °F69 %30.33 in10.0 miSouth (190°)5.8 mphOvercast
9:51 PM54.0 °F44.1 °F69 %30.32 in10.0 miSouth (170°)8.1 mphOvercast
10:51 PM53.1 °F44.1 °F71 %30.31 in10.0 miSouth (170°)9.2 mphOvercast
11:51 PM53.1 °F44.1 °F71 %30.30 in10.0 miSSE (160°)10.4 mphOvercast
Hourly data recorded from KSTL, located miles away from Berkeley, Missouri







STORIES FROM OUR PARTNERS